Time,TemperatureF,DewpointF,PressureIn,WindDirection,WindDirectionDegrees,WindSpeedMPH,WindSpeedGustMPH,Humidity,HourlyPrecipIn,Conditions,Clouds,dailyrainin,SoftwareType,DateUTC
2013-01-31 00:00:00,50.9,51.0,29.50,SW,225,5.1,20.8,100,0.00,,,0.00,Rainwise IP-100,2013-01-31 05:00:00,
2013-01-31 00:05:00,50.9,51.0,29.50,North,360,9.8,19.4,100,0.00,,,0.00,Rainwise IP-100,2013-01-31 05:05:00,
2013-01-31 00:10:00,51.0,51.0,29.49,SW,225,8.2,24.9,100,0.00,,,0.00,Rainwise IP-100,2013-01-31 05:10:00,
2013-01-31 00:15:00,51.1,51.0,29.49,SW,225,6.1,17.3,100,0.00,,,0.00,Rainwise IP-100,2013-01-31 05:15:00,
2013-01-31 00:20:00,51.1,51.0,29.49,North,360,16.6,19.6,100,0.00,,,0.00,Rainwise IP-100,2013-01-31 05:20:00,
2013-01-31 00:25:00,51.1,51.0,29.49,WSW,247,6.1,21.2,100,0.00,,,0.00,Rainwise IP-100,2013-01-31 05:25:00,
2013-01-31 00:30:00,51.1,51.0,29.49,North,360,13.1,21.7,100,0.06,,,0.01,Rainwise IP-100,2013-01-31 05:30:00,
2013-01-31 00:35:00,51.0,51.0,29.48,SW,225,6.1,20.5,100,0.06,,,0.01,Rainwise IP-100,2013-01-31 05:35:00,
2013-01-31 00:40:00,51.0,51.0,29.45,SSE,157,14.2,19.8,100,0.00,,,0.01,Rainwise IP-100,2013-01-31 05:40:00,
2013-01-31 00:45:00,51.0,51.0,29.46,North,360,9.6,25.4,100,0.00,,,0.01,Rainwise IP-100,2013-01-31 05:45:00,
2013-01-31 00:50:00,51.0,51.0,29.47,SW,225,11.7,21.7,100,0.00,,,0.01,Rainwise IP-100,2013-01-31 05:50:00,
2013-01-31 00:55:00,51.0,51.0,29.47,North,360,18.2,19.1,100,0.00,,,0.01,Rainwise IP-100,2013-01-31 05:55:00,
2013-01-31 01:00:00,51.0,51.0,29.47,SW,225,4.9,23.1,100,0.00,,,0.01,Rainwise IP-100,2013-01-31 06:00:00,
2013-01-31 01:05:00,51.1,51.0,29.47,SW,225,10.5,22.6,100,0.00,,,0.01,Rainwise IP-100,2013-01-31 06:05:00,
2013-01-31 01:10:00,51.2,51.0,29.47,SW,225,10.0,21.0,100,0.00,,,0.01,Rainwise IP-100,2013-01-31 06:10:00,
2013-01-31 01:15:00,51.2,51.0,29.47,WSW,247,7.5,28.7,100,0.00,,,0.01,Rainwise IP-100,2013-01-31 06:15:00,
2013-01-31 01:20:00,51.3,51.0,29.47,SW,225,7.0,21.7,100,0.00,,,0.01,Rainwise IP-100,2013-01-31 06:20:00,
2013-01-31 01:23:00,51.3,51.0,29.46,North,360,12.4,21.7,100,0.00,,,0.01,Rainwise IP-100,2013-01-31 06:23:00,
2013-01-31 01:28:00,51.3,51.0,29.47,North,360,6.3,25.2,100,0.00,,,0.01,Rainwise IP-100,2013-01-31 06:28:00,
2013-01-31 01:33:00,51.3,51.0,29.46,WSW,247,4.9,27.3,100,0.00,,,0.01,Rainwise IP-100,2013-01-31 06:33:00,
2013-01-31 01:38:00,51.2,51.0,29.45,SSE,157,8.6,18.2,100,0.00,,,0.01,Rainwise IP-100,2013-01-31 06:38:00,
2013-01-31 01:43:00,51.2,51.0,29.46,North,360,14.0,21.0,100,0.00,,,0.01,Rainwise IP-100,2013-01-31 06:43:00,
2013-01-31 01:48:00,51.3,51.0,29.45,North,360,7.9,28.7,100,0.00,,,0.01,Rainwise IP-100,2013-01-31 06:48:00,
2013-01-31 01:53:00,51.3,51.0,29.45,SW,225,14.5,21.5,100,0.00,,,0.01,Rainwise IP-100,2013-01-31 06:53:00,
2013-01-31 01:58:00,51.4,51.0,29.44,SSE,157,4.9,21.7,100,0.00,,,0.01,Rainwise IP-100,2013-01-31 06:58:00,
2013-01-31 02:03:00,51.4,51.0,29.44,SW,225,8.2,23.6,100,0.06,,,0.02,Rainwise IP-100,2013-01-31 07:03:00,
2013-01-31 02:08:00,51.4,51.0,29.44,WSW,247,9.1,22.9,100,0.06,,,0.02,Rainwise IP-100,2013-01-31 07:08:00,
2013-01-31 02:13:00,51.5,52.0,29.44,SSE,157,12.4,24.7,100,0.00,,,0.02,Rainwise IP-100,2013-01-31 07:13:00,
2013-01-31 02:18:00,51.7,52.0,29.43,SW,225,10.5,20.5,100,0.00,,,0.02,Rainwise IP-100,2013-01-31 07:18:00,
2013-01-31 02:23:00,51.8,52.0,29.44,WSW,247,8.4,21.9,100,0.00,,,0.02,Rainwise IP-100,2013-01-31 07:23:00,
2013-01-31 02:28:00,51.9,52.0,29.43,SSE,157,8.9,22.2,100,0.00,,,0.02,Rainwise IP-100,2013-01-31 07:28:00,
2013-01-31 02:33:00,51.9,52.0,29.42,SSE,157,5.6,24.5,100,0.00,,,0.02,Rainwise IP-100,2013-01-31 07:33:00,
2013-01-31 02:38:00,52.0,52.0,29.42,SW,225,7.5,20.8,100,0.00,,,0.02,Rainwise IP-100,2013-01-31 07:38:00,
2013-01-31 02:43:00,52.0,52.0,29.41,North,360,12.4,20.8,100,0.00,,,0.02,Rainwise IP-100,2013-01-31 07:43:00,
2013-01-31 02:48:00,52.0,52.0,29.40,SW,225,18.9,29.8,100,0.00,,,0.02,Rainwise IP-100,2013-01-31 07:48:00,
2013-01-31 02:53:00,52.1,52.0,29.40,SW,225,19.4,23.6,100,0.00,,,0.02,Rainwise IP-100,2013-01-31 07:53:00,
2013-01-31 02:58:00,52.1,52.0,29.38,SW,225,4.2,24.7,100,0.00,,,0.02,Rainwise IP-100,2013-01-31 07:58:00,
2013-01-31 03:03:00,52.0,52.0,29.39,North,360,14.9,28.2,100,0.00,,,0.02,Rainwise IP-100,2013-01-31 08:03:00,
2013-01-31 03:08:00,51.9,52.0,29.39,SSE,157,3.7,28.2,100,0.00,,,0.02,Rainwise IP-100,2013-01-31 08:08:00,
2013-01-31 03:13:00,51.8,52.0,29.38,WSW,247,4.4,23.8,100,0.00,,,0.02,Rainwise IP-100,2013-01-31 08:13:00,
2013-01-31 03:18:00,51.8,52.0,29.37,SSE,157,19.8,24.0,100,0.00,,,0.02,Rainwise IP-100,2013-01-31 08:18:00,
2013-01-31 03:23:00,51.9,52.0,29.38,WSW,247,9.8,30.3,100,0.00,,,0.02,Rainwise IP-100,2013-01-31 08:23:00,
2013-01-31 03:28:00,52.1,52.0,29.36,WSW,247,7.7,34.0,100,0.00,,,0.02,Rainwise IP-100,2013-01-31 08:28:00,
2013-01-31 03:33:00,52.2,52.0,29.36,SSE,157,10.3,23.6,100,0.00,,,0.02,Rainwise IP-100,2013-01-31 08:33:00,
2013-01-31 03:38:00,52.4,52.0,29.35,WSW,247,7.2,24.9,100,0.00,,,0.02,Rainwise IP-100,2013-01-31 08:38:00,
2013-01-31 03:43:00,52.6,53.0,29.34,North,360,18.4,26.8,100,0.00,,,0.02,Rainwise IP-100,2013-01-31 08:43:00,
2013-01-31 03:48:00,52.8,53.0,29.34,SW,225,7.5,24.0,100,0.00,,,0.02,Rainwise IP-100,2013-01-31 08:48:00,
2013-01-31 03:53:00,53.0,53.0,29.34,North,360,9.3,33.8,100,0.00,,,0.02,Rainwise IP-100,2013-01-31 08:53:00,
2013-01-31 03:58:00,53.3,53.5,29.33,SSE,157,30.5,30.5,100,0.00,,,0.02,Rainwise IP-100,2013-01-31 08:58:00,
2013-01-31 04:03:00,53.5,53.5,29.33,SSE,157,23.1,30.5,100,0.00,,,0.02,Rainwise IP-100,2013-01-31 09:03:00,
2013-01-31 04:08:00,53.6,53.5,29.33,SW,225,7.0,32.4,100,0.00,,,0.02,Rainwise IP-100,2013-01-31 09:08:00,
2013-01-31 04:13:00,53.5,53.5,29.32,North,360,20.3,27.3,100,0.00,,,0.02,Rainwise IP-100,2013-01-31 09:13:00,
2013-01-31 04:16:00,53.5,53.5,29.32,SW,225,18.7,30.8,100,0.00,,,0.02,Rainwise IP-100,2013-01-31 09:16:00,
2013-01-31 04:21:00,53.3,53.5,29.31,North,360,22.6,31.7,100,0.00,,,0.02,Rainwise IP-100,2013-01-31 09:21:00,
2013-01-31 04:26:00,53.3,53.5,29.30,SSE,157,18.7,26.6,100,0.00,,,0.02,Rainwise IP-100,2013-01-31 09:26:00,
2013-01-31 04:31:00,53.2,53.0,29.30,SSE,157,5.4,34.7,100,0.00,,,0.02,Rainwise IP-100,2013-01-31 09:31:00,
2013-01-31 04:36:00,53.1,53.0,29.30,SW,225,8.6,28.4,100,0.00,,,0.02,Rainwise IP-100,2013-01-31 09:36:00,
2013-01-31 04:41:00,53.2,53.0,29.29,North,360,13.1,29.6,100,0.00,,,0.02,Rainwise IP-100,2013-01-31 09:41:00,
2013-01-31 04:46:00,53.3,53.5,29.29,SSE,157,15.6,24.9,100,0.06,,,0.03,Rainwise IP-100,2013-01-31 09:46:00,
2013-01-31 04:51:00,53.4,53.5,29.28,WSW,247,7.9,31.0,100,0.06,,,0.03,Rainwise IP-100,2013-01-31 09:51:00,
2013-01-31 04:56:00,53.3,53.5,29.27,North,360,18.4,33.8,100,0.00,,,0.03,Rainwise IP-100,2013-01-31 09:56:00,
2013-01-31 05:01:00,53.3,53.5,29.26,SSW,202,17.3,24.0,100,0.00,,,0.03,Rainwise IP-100,2013-01-31 10:01:00,
2013-01-31 05:06:00,53.4,53.5,29.26,North,360,16.8,28.9,100,0.00,,,0.03,Rainwise IP-100,2013-01-31 10:06:00,
2013-01-31 05:11:00,53.5,53.5,29.26,SSE,157,13.5,32.6,100,0.00,,,0.03,Rainwise IP-100,2013-01-31 10:11:00,
2013-01-31 05:16:00,53.5,53.5,29.25,SSE,157,17.3,27.7,100,0.00,,,0.03,Rainwise IP-100,2013-01-31 10:16:00,
2013-01-31 05:21:00,53.5,53.5,29.25,SSE,157,8.4,36.4,100,0.00,,,0.03,Rainwise IP-100,2013-01-31 10:21:00,
2013-01-31 05:26:00,53.6,53.5,29.24,SSW,202,14.5,33.3,100,0.00,,,0.03,Rainwise IP-100,2013-01-31 10:26:00,
2013-01-31 05:31:00,53.5,53.5,29.23,SSE,157,12.1,28.7,100,0.00,,,0.03,Rainwise IP-100,2013-01-31 10:31:00,
2013-01-31 05:36:00,53.1,53.0,29.21,SSE,157,9.8,27.3,100,0.00,,,0.03,Rainwise IP-100,2013-01-31 10:36:00,
2013-01-31 05:41:00,52.7,53.0,29.23,North,360,4.0,36.4,100,0.00,,,0.03,Rainwise IP-100,2013-01-31 10:41:00,
2013-01-31 05:46:00,52.5,53.0,29.24,SSE,157,17.5,28.4,100,0.00,,,0.03,Rainwise IP-100,2013-01-31 10:46:00,
2013-01-31 05:51:00,52.4,52.0,29.21,South,180,16.6,34.7,100,0.00,,,0.03,Rainwise IP-100,2013-01-31 10:51:00,
2013-01-31 05:56:00,52.4,52.0,29.22,South,180,21.2,29.1,100,0.00,,,0.03,Rainwise IP-100,2013-01-31 10:56:00,
2013-01-31 06:01:00,52.3,52.0,29.20,North,360,5.4,33.8,100,0.00,,,0.03,Rainwise IP-100,2013-01-31 11:01:00,
2013-01-31 06:06:00,52.3,52.0,29.22,SSW,202,6.8,34.0,100,0.00,,,0.03,Rainwise IP-100,2013-01-31 11:06:00,
2013-01-31 06:11:00,52.3,52.0,29.20,SSE,157,9.8,30.1,100,0.00,,,0.03,Rainwise IP-100,2013-01-31 11:11:00,
2013-01-31 06:16:00,52.3,52.0,29.20,SSW,202,25.2,32.4,100,0.00,,,0.03,Rainwise IP-100,2013-01-31 11:16:00,
2013-01-31 06:21:00,52.2,52.0,29.20,North,360,11.7,33.1,100,0.00,,,0.03,Rainwise IP-100,2013-01-31 11:21:00,
2013-01-31 06:26:00,52.0,52.0,29.20,South,180,16.8,30.8,100,0.00,,,0.03,Rainwise IP-100,2013-01-31 11:26:00,
2013-01-31 06:31:00,51.9,52.0,29.19,SSW,202,7.0,29.1,100,0.00,,,0.03,Rainwise IP-100,2013-01-31 11:31:00,
2013-01-31 06:36:00,51.8,52.0,29.18,SSW,202,11.9,33.1,100,0.00,,,0.03,Rainwise IP-100,2013-01-31 11:36:00,
2013-01-31 06:41:00,51.8,52.0,29.19,South,180,17.5,29.8,100,0.06,,,0.04,Rainwise IP-100,2013-01-31 11:41:00,
2013-01-31 06:46:00,51.8,52.0,29.19,SSW,202,16.8,29.4,100,0.06,,,0.04,Rainwise IP-100,2013-01-31 11:46:00,
2013-01-31 06:51:00,51.6,52.0,29.17,SSW,202,19.8,31.9,100,0.00,,,0.04,Rainwise IP-100,2013-01-31 11:51:00,
2013-01-31 06:56:00,51.5,52.0,29.17,SSW,202,20.5,33.3,100,0.06,,,0.05,Rainwise IP-100,2013-01-31 11:56:00,
2013-01-31 07:01:00,51.3,51.0,29.17,SSE,157,10.3,26.8,100,0.06,,,0.05,Rainwise IP-100,2013-01-31 12:01:00,
2013-01-31 07:06:00,51.1,51.0,29.16,SSW,202,15.6,31.5,100,0.00,,,0.05,Rainwise IP-100,2013-01-31 12:06:00,
2013-01-31 07:11:00,51.0,51.0,29.16,SSW,202,6.8,28.4,100,0.00,,,0.05,Rainwise IP-100,2013-01-31 12:11:00,
2013-01-31 07:16:00,51.0,51.0,29.15,WSW,247,11.4,32.4,100,0.06,,,0.06,Rainwise IP-100,2013-01-31 12:16:00,
2013-01-31 07:21:00,50.9,51.0,29.15,ESE,112,9.8,29.8,100,0.06,,,0.06,Rainwise IP-100,2013-01-31 12:21:00,
2013-01-31 07:26:00,50.8,51.0,29.15,South,180,19.8,32.9,100,0.00,,,0.06,Rainwise IP-100,2013-01-31 12:26:00,
2013-01-31 07:31:00,50.8,51.0,29.15,SSW,202,9.3,29.8,100,0.06,,,0.07,Rainwise IP-100,2013-01-31 12:31:00,
2013-01-31 07:36:00,50.7,50.5,29.14,South,180,24.5,30.3,100,0.06,,,0.07,Rainwise IP-100,2013-01-31 12:36:00,
2013-01-31 07:41:00,50.7,50.5,29.13,SSW,202,19.1,33.1,100,0.00,,,0.07,Rainwise IP-100,2013-01-31 12:41:00,
2013-01-31 07:46:00,50.7,50.5,29.12,WSW,247,16.6,41.7,100,0.06,,,0.08,Rainwise IP-100,2013-01-31 12:46:00,
2013-01-31 07:51:00,50.8,51.0,29.10,SSW,202,11.0,31.2,100,0.06,,,0.08,Rainwise IP-100,2013-01-31 12:51:00,
2013-01-31 07:56:00,50.8,51.0,29.10,SSE,157,15.9,37.1,100,0.06,,,0.09,Rainwise IP-100,2013-01-31 12:56:00,
2013-01-31 08:01:00,50.8,51.0,29.09,SSE,157,14.2,35.9,100,0.06,,,0.09,Rainwise IP-100,2013-01-31 13:01:00,
2013-01-31 08:06:00,51.0,51.0,29.08,SSW,202,8.2,32.4,100,0.00,,,0.09,Rainwise IP-100,2013-01-31 13:06:00,
2013-01-31 08:11:00,51.1,51.0,29.08,SSW,202,7.0,32.4,100,0.06,,,0.10,Rainwise IP-100,2013-01-31 13:11:00,
2013-01-31 08:16:00,51.2,51.0,29.06,SSE,157,17.0,35.2,100,0.06,,,0.10,Rainwise IP-100,2013-01-31 13:16:00,
2013-01-31 08:21:00,51.3,51.0,29.05,SSE,157,27.5,37.3,100,0.06,,,0.11,Rainwise IP-100,2013-01-31 13:21:00,
2013-01-31 08:26:00,51.4,51.0,29.05,North,360,13.8,35.0,100,0.06,,,0.11,Rainwise IP-100,2013-01-31 13:26:00,
2013-01-31 08:31:00,51.4,51.0,29.06,South,180,18.2,34.0,100,0.00,,,0.12,Rainwise IP-100,2013-01-31 13:31:00,
2013-01-31 08:36:00,51.4,51.0,29.05,SSW,202,13.5,34.0,100,0.06,,,0.13,Rainwise IP-100,2013-01-31 13:36:00,
2013-01-31 08:41:00,51.4,51.0,29.05,South,180,28.4,34.3,100,0.12,,,0.13,Rainwise IP-100,2013-01-31 13:41:00,
2013-01-31 08:46:00,51.5,52.0,29.03,SSE,157,7.2,45.2,100,0.12,,,0.14,Rainwise IP-100,2013-01-31 13:46:00,
2013-01-31 08:51:00,51.6,52.0,29.05,SSE,157,15.6,30.8,100,0.06,,,0.14,Rainwise IP-100,2013-01-31 13:51:00,
2013-01-31 08:56:00,52.0,52.0,29.04,SSE,157,11.0,38.7,100,0.00,,,0.14,Rainwise IP-100,2013-01-31 13:56:00,
2013-01-31 09:01:00,52.9,53.0,29.05,North,360,14.7,36.4,100,0.06,,,0.15,Rainwise IP-100,2013-01-31 14:01:00,
2013-01-31 09:06:00,53.8,54.0,29.04,SSE,157,6.1,38.9,100,0.06,,,0.15,Rainwise IP-100,2013-01-31 14:06:00,
2013-01-31 09:11:00,54.2,54.0,29.03,SSW,202,12.1,36.1,100,0.00,,,0.15,Rainwise IP-100,2013-01-31 14:11:00,
2013-01-31 09:16:00,54.1,54.0,29.03,WSW,247,18.4,39.6,100,0.00,,,0.15,Rainwise IP-100,2013-01-31 14:16:00,
2013-01-31 09:21:00,54.0,54.0,29.03,SSE,157,10.0,29.4,100,0.00,,,0.15,Rainwise IP-100,2013-01-31 14:21:00,
2013-01-31 09:26:00,53.9,54.0,29.03,SSW,202,8.4,32.9,100,0.00,,,0.15,Rainwise IP-100,2013-01-31 14:26:00,
2013-01-31 09:31:00,53.8,54.0,29.03,SSE,157,16.1,30.8,100,0.00,,,0.15,Rainwise IP-100,2013-01-31 14:31:00,
2013-01-31 09:36:00,53.6,53.5,29.01,SSW,202,20.8,40.1,100,0.00,,,0.15,Rainwise IP-100,2013-01-31 14:36:00,
2013-01-31 09:41:00,53.6,53.5,29.02,SSW,202,6.1,46.4,100,0.00,,,0.15,Rainwise IP-100,2013-01-31 14:41:00,
2013-01-31 09:46:00,53.4,53.5,29.01,SSW,202,18.0,25.9,100,0.00,,,0.15,Rainwise IP-100,2013-01-31 14:46:00,
2013-01-31 09:51:00,53.2,53.0,29.00,SSW,202,13.1,33.3,100,0.06,,,0.16,Rainwise IP-100,2013-01-31 14:51:00,
2013-01-31 09:56:00,53.2,53.0,29.01,SSE,157,14.7,33.3,100,0.06,,,0.16,Rainwise IP-100,2013-01-31 14:56:00,
2013-01-31 10:01:00,53.1,53.0,29.00,SSW,202,16.6,29.6,100,0.00,,,0.16,Rainwise IP-100,2013-01-31 15:01:00,
2013-01-31 10:06:00,53.0,53.0,28.99,SSW,202,5.1,25.6,100,0.00,,,0.16,Rainwise IP-100,2013-01-31 15:06:00,
2013-01-31 10:11:00,52.9,53.0,29.00,North,360,13.8,29.4,100,0.06,,,0.17,Rainwise IP-100,2013-01-31 15:11:00,
2013-01-31 10:16:00,52.7,53.0,28.93,SSE,157,9.1,28.7,100,0.06,,,0.17,Rainwise IP-100,2013-01-31 15:16:00,
2013-01-31 10:21:00,52.5,53.0,28.96,North,360,17.7,24.7,100,0.00,,,0.17,Rainwise IP-100,2013-01-31 15:21:00,
2013-01-31 10:26:00,52.4,52.0,28.97,SSW,202,8.9,25.9,100,0.00,,,0.17,Rainwise IP-100,2013-01-31 15:26:00,
2013-01-31 10:31:00,52.2,52.0,28.96,SSW,202,11.2,29.8,100,0.00,,,0.17,Rainwise IP-100,2013-01-31 15:31:00,
2013-01-31 10:36:00,52.0,52.0,28.94,SSE,157,20.1,25.9,100,0.00,,,0.17,Rainwise IP-100,2013-01-31 15:36:00,
2013-01-31 10:41:00,51.9,52.0,28.94,South,180,5.1,31.0,100,0.00,,,0.17,Rainwise IP-100,2013-01-31 15:41:00,
2013-01-31 10:46:00,51.9,52.0,28.93,SSE,157,7.7,26.1,100,0.00,,,0.17,Rainwise IP-100,2013-01-31 15:46:00,
2013-01-31 10:51:00,51.9,52.0,28.92,SSE,157,21.7,25.9,100,0.00,,,0.17,Rainwise IP-100,2013-01-31 15:51:00,
2013-01-31 10:56:00,52.2,52.0,28.93,SSE,157,10.5,31.5,100,0.06,,,0.18,Rainwise IP-100,2013-01-31 15:56:00,
2013-01-31 11:01:00,52.5,53.0,28.91,North,360,5.1,26.3,100,0.06,,,0.18,Rainwise IP-100,2013-01-31 16:01:00,
2013-01-31 11:06:00,52.7,53.0,28.90,SSW,202,22.2,32.2,100,0.06,,,0.19,Rainwise IP-100,2013-01-31 16:06:00,
2013-01-31 11:11:00,52.6,53.0,28.90,South,180,13.8,28.7,100,0.06,,,0.19,Rainwise IP-100,2013-01-31 16:11:00,
2013-01-31 11:16:00,52.5,53.0,28.88,WSW,247,9.1,30.8,100,0.00,,,0.19,Rainwise IP-100,2013-01-31 16:16:00,
2013-01-31 11:21:00,52.3,52.0,28.88,SSW,202,13.3,31.2,100,0.00,,,0.19,Rainwise IP-100,2013-01-31 16:21:00,
2013-01-31 11:26:00,52.1,52.0,28.89,SSW,202,20.1,32.2,100,0.00,,,0.19,Rainwise IP-100,2013-01-31 16:26:00,
2013-01-31 11:31:00,51.9,52.0,28.88,North,360,14.9,35.9,100,0.00,,,0.19,Rainwise IP-100,2013-01-31 16:31:00,
2013-01-31 11:36:00,51.8,52.0,28.87,South,180,11.2,34.7,100,0.00,,,0.19,Rainwise IP-100,2013-01-31 16:36:00,
2013-01-31 11:41:00,51.8,52.0,28.86,SSE,157,16.6,31.0,100,0.00,,,0.19,Rainwise IP-100,2013-01-31 16:41:00,
2013-01-31 11:46:00,51.7,52.0,28.87,WSW,247,14.2,25.2,100,0.00,,,0.19,Rainwise IP-100,2013-01-31 16:46:00,
2013-01-31 11:51:00,51.6,52.0,28.86,SSW,202,13.5,28.2,100,0.00,,,0.19,Rainwise IP-100,2013-01-31 16:51:00,
2013-01-31 11:56:00,51.5,52.0,28.86,North,360,14.5,30.1,100,0.00,,,0.19,Rainwise IP-100,2013-01-31 16:56:00,
2013-01-31 12:01:00,51.4,51.0,28.86,North,360,6.8,31.9,100,0.00,,,0.19,Rainwise IP-100,2013-01-31 17:01:00,
2013-01-31 12:06:00,51.0,51.0,28.86,SSW,202,16.3,38.7,100,0.00,,,0.19,Rainwise IP-100,2013-01-31 17:06:00,
2013-01-31 12:11:00,50.7,50.5,28.86,SSW,202,6.1,26.8,100,0.00,,,0.19,Rainwise IP-100,2013-01-31 17:11:00,
2013-01-31 12:16:00,50.4,50.5,28.86,South,180,11.4,23.8,100,0.00,,,0.19,Rainwise IP-100,2013-01-31 17:16:00,
2013-01-31 12:21:00,50.0,50.0,28.87,South,180,17.3,21.2,100,0.00,,,0.19,Rainwise IP-100,2013-01-31 17:21:00,
2013-01-31 12:26:00,49.7,50.0,28.87,WSW,247,8.6,25.9,100,0.00,,,0.19,Rainwise IP-100,2013-01-31 17:26:00,
2013-01-31 12:31:00,49.5,50.0,28.89,WSW,247,9.3,20.3,100,0.00,,,0.19,Rainwise IP-100,2013-01-31 17:31:00,
2013-01-31 12:36:00,49.5,50.0,28.89,South,180,8.6,21.2,100,0.00,,,0.19,Rainwise IP-100,2013-01-31 17:36:00,
2013-01-31 12:41:00,49.4,49.0,28.91,WSW,247,17.5,17.7,100,0.00,,,0.20,Rainwise IP-100,2013-01-31 17:41:00,
2013-01-31 12:46:00,48.9,49.0,28.90,NNE,22,4.0,23.8,100,0.12,,,0.21,Rainwise IP-100,2013-01-31 17:46:00,
2013-01-31 12:51:00,48.1,48.0,28.90,WSW,247,2.3,15.2,100,0.12,,,0.21,Rainwise IP-100,2013-01-31 17:51:00,
2013-01-31 12:56:00,47.5,47.5,28.92,West,270,1.4,8.4,100,0.00,,,0.21,Rainwise IP-100,2013-01-31 17:56:00,
2013-01-31 13:01:00,47.1,47.0,28.93,WSW,247,0.0,8.4,100,0.00,,,0.21,Rainwise IP-100,2013-01-31 18:01:00,
2013-01-31 13:06:00,46.8,47.0,28.94,West,270,4.0,8.2,100,0.00,,,0.21,Rainwise IP-100,2013-01-31 18:06:00,
2013-01-31 13:11:00,46.2,46.0,28.96,WNW,292,1.6,11.4,100,0.00,,,0.21,Rainwise IP-100,2013-01-31 18:11:00,
2013-01-31 13:16:00,45.1,45.0,28.97,WNW,292,4.2,15.2,99,0.00,,,0.21,Rainwise IP-100,2013-01-31 18:16:00,
2013-01-31 13:21:00,44.2,44.0,28.98,WNW,292,6.8,15.2,99,0.00,,,0.21,Rainwise IP-100,2013-01-31 18:21:00,
2013-01-31 13:26:00,43.7,44.0,28.98,WNW,292,4.7,12.8,99,0.00,,,0.21,Rainwise IP-100,2013-01-31 18:26:00,
2013-01-31 13:31:00,43.4,43.0,28.99,West,270,4.2,13.8,99,0.00,,,0.21,Rainwise IP-100,2013-01-31 18:31:00,
2013-01-31 13:36:00,43.3,43.0,28.98,WNW,292,6.8,13.8,99,0.00,,,0.21,Rainwise IP-100,2013-01-31 18:36:00,
2013-01-31 13:41:00,43.1,42.0,28.99,WNW,292,4.2,12.6,98,0.00,,,0.21,Rainwise IP-100,2013-01-31 18:41:00,
2013-01-31 13:46:00,42.9,42.0,28.99,NNW,337,2.6,10.3,98,0.00,,,0.21,Rainwise IP-100,2013-01-31 18:46:00,
2013-01-31 13:51:00,42.7,42.0,28.99,NW,315,6.3,10.7,97,0.00,,,0.21,Rainwise IP-100,2013-01-31 18:51:00,
2013-01-31 13:56:00,42.7,42.0,29.00,WSW,247,3.0,12.4,97,0.00,,,0.21,Rainwise IP-100,2013-01-31 18:56:00,
2013-01-31 14:01:00,42.7,42.0,29.00,WNW,292,1.6,11.7,97,0.00,,,0.21,Rainwise IP-100,2013-01-31 19:01:00,
2013-01-31 14:06:00,42.5,42.0,29.00,NW,315,2.1,7.2,97,0.00,,,0.21,Rainwise IP-100,2013-01-31 19:06:00,
2013-01-31 14:11:00,42.2,41.0,29.01,WNW,292,7.7,7.7,97,0.00,,,0.21,Rainwise IP-100,2013-01-31 19:11:00,
2013-01-31 14:16:00,42.0,41.0,29.01,South,180,6.5,12.4,97,0.00,,,0.21,Rainwise IP-100,2013-01-31 19:16:00,
2013-01-31 14:21:00,41.7,41.0,29.02,WNW,292,1.4,13.1,97,0.00,,,0.21,Rainwise IP-100,2013-01-31 19:21:00,
2013-01-31 14:26:00,41.5,41.0,29.02,NNE,22,0.0,8.2,97,0.00,,,0.21,Rainwise IP-100,2013-01-31 19:26:00,
2013-01-31 14:31:00,41.2,40.0,29.03,WNW,292,7.2,8.6,98,0.00,,,0.21,Rainwise IP-100,2013-01-31 19:31:00,
2013-01-31 14:36:00,41.0,40.0,29.03,WNW,292,7.7,13.3,97,0.06,,,0.22,Rainwise IP-100,2013-01-31 19:36:00,
2013-01-31 14:41:00,40.9,40.0,29.04,SW,225,2.1,10.7,96,0.06,,,0.22,Rainwise IP-100,2013-01-31 19:41:00,
2013-01-31 14:46:00,40.9,40.0,29.05,West,270,1.6,4.4,97,0.00,,,0.22,Rainwise IP-100,2013-01-31 19:46:00,
2013-01-31 14:51:00,41.0,40.0,29.05,West,270,1.6,5.1,97,0.00,,,0.22,Rainwise IP-100,2013-01-31 19:51:00,
2013-01-31 14:56:00,41.3,40.0,29.05,WSW,247,1.6,6.1,97,0.00,,,0.22,Rainwise IP-100,2013-01-31 19:56:00,
2013-01-31 15:01:00,42.1,41.0,29.05,WSW,247,2.1,5.8,97,0.00,,,0.22,Rainwise IP-100,2013-01-31 20:01:00,
2013-01-31 15:06:00,42.6,42.0,29.06,NNW,337,7.5,7.5,96,0.00,,,0.22,Rainwise IP-100,2013-01-31 20:06:00,
2013-01-31 15:11:00,41.9,41.0,29.08,SSW,202,2.1,15.2,95,0.00,,,0.22,Rainwise IP-100,2013-01-31 20:11:00,
2013-01-31 15:16:00,40.3,39.0,29.08,NW,315,1.4,9.1,95,0.00,,,0.22,Rainwise IP-100,2013-01-31 20:16:00,
2013-01-31 15:21:00,39.5,39.0,29.08,WSW,247,0.0,9.6,96,0.00,,,0.22,Rainwise IP-100,2013-01-31 20:21:00,
2013-01-31 15:26:00,39.6,39.0,29.09,NNW,337,0.0,5.1,96,0.00,,,0.22,Rainwise IP-100,2013-01-31 20:26:00,
2013-01-31 15:31:00,39.7,39.0,29.09,WNW,292,1.9,10.0,96,0.00,,,0.22,Rainwise IP-100,2013-01-31 20:31:00,
2013-01-31 15:36:00,39.8,39.0,29.09,ENE,67,3.0,12.1,95,0.00,,,0.22,Rainwise IP-100,2013-01-31 20:36:00,
2013-01-31 15:41:00,39.7,39.0,29.10,NNW,337,2.1,8.6,94,0.00,,,0.22,Rainwise IP-100,2013-01-31 20:41:00,
2013-01-31 15:46:00,39.5,38.0,29.10,NW,315,3.3,13.8,92,0.00,,,0.22,Rainwise IP-100,2013-01-31 20:46:00,
2013-01-31 15:51:00,39.2,36.0,29.10,WNW,292,3.3,12.1,89,0.00,,,0.22,Rainwise IP-100,2013-01-31 20:51:00,
2013-01-31 15:56:00,38.8,36.0,29.10,North,360,8.4,8.6,88,0.00,,,0.22,Rainwise IP-100,2013-01-31 20:56:00,
2013-01-31 16:01:00,38.4,35.0,29.10,West,270,7.9,14.2,87,0.00,,,0.22,Rainwise IP-100,2013-01-31 21:01:00,
2013-01-31 16:06:00,38.2,35.0,29.11,NW,315,5.8,10.7,87,0.00,,,0.22,Rainwise IP-100,2013-01-31 21:06:00,
2013-01-31 16:11:00,37.9,35.0,29.12,WNW,292,4.0,8.2,87,0.00,,,0.22,Rainwise IP-100,2013-01-31 21:11:00,
2013-01-31 16:16:00,37.7,35.0,29.12,West,270,2.1,7.9,87,0.00,,,0.22,Rainwise IP-100,2013-01-31 21:16:00,
2013-01-31 16:21:00,37.5,35.0,29.12,WNW,292,3.7,8.2,88,0.00,,,0.22,Rainwise IP-100,2013-01-31 21:21:00,
2013-01-31 16:26:00,37.3,33.0,29.12,NNW,337,0.0,7.9,88,0.00,,,0.22,Rainwise IP-100,2013-01-31 21:26:00,
2013-01-31 16:31:00,36.9,33.0,29.12,WNW,292,3.3,5.1,88,0.00,,,0.22,Rainwise IP-100,2013-01-31 21:31:00,
2013-01-31 16:36:00,36.5,35.0,29.12,NW,315,0.0,5.8,89,0.00,,,0.22,Rainwise IP-100,2013-01-31 21:36:00,
2013-01-31 16:41:00,36.2,33.0,29.13,NNW,337,1.2,6.5,89,0.00,,,0.22,Rainwise IP-100,2013-01-31 21:41:00,
2013-01-31 16:46:00,35.8,33.0,29.13,North,360,3.0,3.3,90,0.00,,,0.22,Rainwise IP-100,2013-01-31 21:46:00,
2013-01-31 16:51:00,35.3,32.0,29.14,WNW,292,0.0,3.5,91,0.00,,,0.22,Rainwise IP-100,2013-01-31 21:51:00,
2013-01-31 16:56:00,35.1,32.0,29.14,West,270,0.0,4.7,91,0.00,,,0.22,Rainwise IP-100,2013-01-31 21:56:00,
2013-01-31 17:01:00,34.9,32.0,29.14,NW,315,1.4,2.8,92,0.00,,,0.22,Rainwise IP-100,2013-01-31 22:01:00,
2013-01-31 17:06:00,34.8,33.0,29.15,South,180,1.4,4.7,93,0.00,,,0.22,Rainwise IP-100,2013-01-31 22:06:00,
2013-01-31 17:11:00,34.9,32.0,29.15,SSW,202,1.2,3.7,92,0.00,,,0.22,Rainwise IP-100,2013-01-31 22:11:00,
2013-01-31 17:16:00,35.1,32.0,29.16,WSW,247,0.0,4.9,91,0.00,,,0.22,Rainwise IP-100,2013-01-31 22:16:00,
2013-01-31 17:21:00,35.3,32.0,29.16,South,180,0.0,3.7,89,0.00,,,0.22,Rainwise IP-100,2013-01-31 22:21:00,
2013-01-31 17:26:00,35.5,32.0,29.17,West,270,1.6,4.7,88,0.00,,,0.22,Rainwise IP-100,2013-01-31 22:26:00,
2013-01-31 17:31:00,35.6,32.0,29.17,SSW,202,2.3,3.3,87,0.00,,,0.22,Rainwise IP-100,2013-01-31 22:31:00,
2013-01-31 17:36:00,35.6,32.0,29.17,South,180,0.0,3.3,86,0.00,,,0.22,Rainwise IP-100,2013-01-31 22:36:00,
2013-01-31 17:41:00,35.6,32.0,29.17,WSW,247,0.0,3.5,86,0.00,,,0.22,Rainwise IP-100,2013-01-31 22:41:00,
2013-01-31 17:46:00,35.6,32.0,29.18,SW,225,1.4,4.0,86,0.00,,,0.22,Rainwise IP-100,2013-01-31 22:46:00,
2013-01-31 17:51:00,35.7,32.0,29.19,WSW,247,0.0,4.7,85,0.00,,,0.22,Rainwise IP-100,2013-01-31 22:51:00,
2013-01-31 17:56:00,35.7,32.0,29.19,WSW,247,1.6,5.4,86,0.00,,,0.22,Rainwise IP-100,2013-01-31 22:56:00,
2013-01-31 18:01:00,35.6,32.0,29.20,WSW,247,3.0,8.9,86,0.00,,,0.22,Rainwise IP-100,2013-01-31 23:01:00,
2013-01-31 18:06:00,35.6,32.0,29.19,SSW,202,2.8,7.2,86,0.00,,,0.22,Rainwise IP-100,2013-01-31 23:06:00,
2013-01-31 18:11:00,35.6,32.0,29.20,SW,225,6.3,9.8,86,0.00,,,0.22,Rainwise IP-100,2013-01-31 23:11:00,
2013-01-31 18:16:00,35.7,31.0,29.20,NW,315,3.3,20.8,83,0.00,,,0.22,Rainwise IP-100,2013-01-31 23:16:00,
2013-01-31 18:21:00,35.8,31.0,29.21,WSW,247,6.8,11.7,80,0.00,,,0.22,Rainwise IP-100,2013-01-31 23:21:00,
2013-01-31 18:26:00,35.7,31.0,29.21,SSW,202,3.0,11.0,79,0.00,,,0.22,Rainwise IP-100,2013-01-31 23:26:00,
2013-01-31 18:31:00,35.5,29.0,29.22,SW,225,2.8,14.9,78,0.00,,,0.22,Rainwise IP-100,2013-01-31 23:31:00,
2013-01-31 18:36:00,35.2,29.0,29.22,West,270,3.3,10.0,78,0.00,,,0.22,Rainwise IP-100,2013-01-31 23:36:00,
2013-01-31 18:41:00,35.1,28.0,29.23,SSW,202,3.7,10.3,77,0.00,,,0.22,Rainwise IP-100,2013-01-31 23:41:00,
2013-01-31 18:46:00,35.1,29.0,29.22,WSW,247,4.0,10.3,78,0.00,,,0.22,Rainwise IP-100,2013-01-31 23:46:00,
2013-01-31 18:51:00,34.9,29.0,29.23,SSW,202,3.0,7.5,78,0.00,,,0.22,Rainwise IP-100,2013-01-31 23:51:00,
2013-01-31 18:56:00,34.8,28.0,29.22,West,270,3.5,8.4,77,0.00,,,0.22,Rainwise IP-100,2013-01-31 23:56:00,
2013-01-31 19:01:00,34.7,28.0,29.23,NNW,337,4.0,9.6,76,0.00,,,0.22,Rainwise IP-100,2013-02-01 00:01:00,
2013-01-31 19:06:00,34.5,28.0,29.23,West,270,8.4,12.8,74,0.00,,,0.22,Rainwise IP-100,2013-02-01 00:06:00,
2013-01-31 19:11:00,34.3,26.0,29.23,NNW,337,1.9,14.9,69,0.00,,,0.22,Rainwise IP-100,2013-02-01 00:11:00,
2013-01-31 19:16:00,34.3,24.0,29.24,WSW,247,2.8,12.4,65,0.00,,,0.22,Rainwise IP-100,2013-02-01 00:16:00,
2013-01-31 19:21:00,34.1,24.0,29.24,SSE,157,0.0,10.3,64,0.00,,,0.22,Rainwise IP-100,2013-02-01 00:21:00,
2013-01-31 19:26:00,33.8,24.0,29.24,WSW,247,3.0,5.8,65,0.00,,,0.22,Rainwise IP-100,2013-02-01 00:26:00,
2013-01-31 19:31:00,33.4,24.0,29.25,WSW,247,1.6,5.1,66,0.00,,,0.22,Rainwise IP-100,2013-02-01 00:31:00,
2013-01-31 19:36:00,32.9,24.0,29.25,SSW,202,2.1,7.7,68,0.00,,,0.22,Rainwise IP-100,2013-02-01 00:36:00,
2013-01-31 19:41:00,32.6,24.0,29.25,WSW,247,1.9,7.7,69,0.00,,,0.22,Rainwise IP-100,2013-02-01 00:41:00,
2013-01-31 19:46:00,32.4,24.0,29.25,NNW,337,2.6,7.5,70,0.00,,,0.22,Rainwise IP-100,2013-02-01 00:46:00,
2013-01-31 19:51:00,32.3,24.0,29.25,SW,225,7.9,8.2,72,0.00,,,0.22,Rainwise IP-100,2013-02-01 00:51:00,
2013-01-31 19:56:00,32.2,24.0,29.25,West,270,4.0,10.0,73,0.00,,,0.22,Rainwise IP-100,2013-02-01 00:56:00,
2013-01-31 20:01:00,32.2,24.0,29.25,SW,225,2.6,14.0,73,0.00,,,0.22,Rainwise IP-100,2013-02-01 01:01:00,
2013-01-31 20:06:00,32.2,24.0,29.26,SSW,202,3.5,10.0,71,0.00,,,0.22,Rainwise IP-100,2013-02-01 01:06:00,
2013-01-31 20:11:00,32.1,24.0,29.26,SSW,202,2.1,10.3,70,0.00,,,0.22,Rainwise IP-100,2013-02-01 01:11:00,
2013-01-31 20:16:00,32.1,23.0,29.27,South,180,3.0,18.7,69,0.00,,,0.22,Rainwise IP-100,2013-02-01 01:16:00,
2013-01-31 20:21:00,32.1,23.0,29.27,SSW,202,3.5,12.4,68,0.00,,,0.22,Rainwise IP-100,2013-02-01 01:21:00,
2013-01-31 20:26:00,32.0,23.0,29.27,SW,225,5.4,9.3,68,0.00,,,0.22,Rainwise IP-100,2013-02-01 01:26:00,
2013-01-31 20:31:00,31.9,23.0,29.28,SSE,157,4.7,10.3,68,0.00,,,0.22,Rainwise IP-100,2013-02-01 01:31:00,
2013-01-31 20:36:00,31.8,23.0,29.27,SSW,202,2.6,15.9,68,0.00,,,0.22,Rainwise IP-100,2013-02-01 01:36:00,
2013-01-31 20:41:00,31.7,23.0,29.28,SSW,202,6.8,14.9,67,0.00,,,0.22,Rainwise IP-100,2013-02-01 01:41:00,
2013-01-31 20:46:00,31.6,23.0,29.28,WNW,292,4.0,11.2,67,0.00,,,0.22,Rainwise IP-100,2013-02-01 01:46:00,
2013-01-31 20:51:00,31.6,23.0,29.28,SW,225,5.1,11.4,66,0.00,,,0.22,Rainwise IP-100,2013-02-01 01:51:00,
2013-01-31 20:56:00,31.5,23.0,29.28,SSW,202,2.3,11.4,66,0.00,,,0.22,Rainwise IP-100,2013-02-01 01:56:00,
2013-01-31 21:01:00,31.4,21.0,29.29,SSW,202,4.0,11.0,65,0.00,,,0.22,Rainwise IP-100,2013-02-01 02:01:00,
2013-01-31 21:06:00,31.4,21.0,29.29,WNW,292,8.9,11.9,65,0.00,,,0.22,Rainwise IP-100,2013-02-01 02:06:00,
2013-01-31 21:11:00,31.4,21.0,29.30,WSW,247,4.2,12.8,64,0.00,,,0.22,Rainwise IP-100,2013-02-01 02:11:00,
2013-01-31 21:16:00,31.5,23.0,29.29,WSW,247,3.0,9.1,64,0.00,,,0.22,Rainwise IP-100,2013-02-01 02:16:00,
2013-01-31 21:21:00,31.4,21.0,29.30,SSW,202,4.4,14.2,64,0.00,,,0.22,Rainwise IP-100,2013-02-01 02:21:00,
2013-01-31 21:26:00,31.2,21.0,29.30,WSW,247,3.0,9.3,64,0.00,,,0.22,Rainwise IP-100,2013-02-01 02:26:00,
2013-01-31 21:31:00,31.2,21.0,29.30,WSW,247,4.4,12.1,63,0.00,,,0.22,Rainwise IP-100,2013-02-01 02:31:00,
2013-01-31 21:36:00,31.2,21.0,29.30,WSW,247,4.2,11.0,62,0.00,,,0.22,Rainwise IP-100,2013-02-01 02:36:00,
2013-01-31 21:41:00,31.1,21.0,29.31,SW,225,8.2,12.4,62,0.00,,,0.22,Rainwise IP-100,2013-02-01 02:41:00,
2013-01-31 21:46:00,31.1,18.0,29.32,WSW,247,4.9,11.0,61,0.00,,,0.22,Rainwise IP-100,2013-02-01 02:46:00,
2013-01-31 21:51:00,31.0,18.0,29.31,SSW,202,5.4,12.8,61,0.00,,,0.22,Rainwise IP-100,2013-02-01 02:51:00,
2013-01-31 21:56:00,30.9,18.0,29.31,SW,225,3.3,11.2,61,0.00,,,0.22,Rainwise IP-100,2013-02-01 02:56:00,
2013-01-31 22:01:00,30.8,18.0,29.32,WSW,247,2.3,9.1,61,0.00,,,0.22,Rainwise IP-100,2013-02-01 03:01:00,
2013-01-31 22:06:00,30.6,18.0,29.32,WSW,247,7.5,13.1,61,0.00,,,0.22,Rainwise IP-100,2013-02-01 03:06:00,
2013-01-31 22:11:00,30.7,18.0,29.33,SSE,157,1.4,8.9,61,0.00,,,0.22,Rainwise IP-100,2013-02-01 03:11:00,
2013-01-31 22:16:00,30.8,21.0,29.32,WNW,292,1.4,5.8,62,0.00,,,0.22,Rainwise IP-100,2013-02-01 03:16:00,
2013-01-31 22:21:00,30.6,21.0,29.32,SSW,202,3.0,9.3,64,0.00,,,0.22,Rainwise IP-100,2013-02-01 03:21:00,
2013-01-31 22:26:00,30.6,21.0,29.33,West,270,5.1,12.4,64,0.00,,,0.22,Rainwise IP-100,2013-02-01 03:26:00,
2013-01-31 22:31:00,30.6,21.0,29.33,WSW,247,3.5,7.9,63,0.00,,,0.22,Rainwise IP-100,2013-02-01 03:31:00,
2013-01-31 22:36:00,30.7,21.0,29.33,South,180,3.5,9.6,62,0.00,,,0.22,Rainwise IP-100,2013-02-01 03:36:00,
2013-01-31 22:41:00,30.8,21.0,29.33,SW,225,1.4,6.1,62,0.00,,,0.22,Rainwise IP-100,2013-02-01 03:41:00,
2013-01-31 22:46:00,30.7,21.0,29.34,SW,225,2.8,12.1,63,0.00,,,0.22,Rainwise IP-100,2013-02-01 03:46:00,
2013-01-31 22:51:00,30.6,21.0,29.34,WSW,247,2.1,7.2,63,0.00,,,0.22,Rainwise IP-100,2013-02-01 03:51:00,
2013-01-31 22:56:00,30.5,21.0,29.35,NW,315,5.6,5.6,62,0.00,,,0.22,Rainwise IP-100,2013-02-01 03:56:00,
2013-01-31 23:01:00,30.5,21.0,29.35,SW,225,5.6,17.0,63,0.00,,,0.22,Rainwise IP-100,2013-02-01 04:01:00,
2013-01-31 23:06:00,30.5,21.0,29.35,SSW,202,0.0,12.8,62,0.00,,,0.22,Rainwise IP-100,2013-02-01 04:06:00,
2013-01-31 23:11:00,30.3,21.0,29.34,WSW,247,1.9,9.8,62,0.00,,,0.22,Rainwise IP-100,2013-02-01 04:11:00,
2013-01-31 23:16:00,30.1,21.0,29.35,WSW,247,3.0,8.2,62,0.00,,,0.22,Rainwise IP-100,2013-02-01 04:16:00,
2013-01-31 23:21:00,30.1,18.0,29.36,NW,315,6.3,8.9,61,0.00,,,0.22,Rainwise IP-100,2013-02-01 04:21:00,
2013-01-31 23:26:00,30.1,18.0,29.36,WSW,247,7.7,10.5,60,0.00,,,0.22,Rainwise IP-100,2013-02-01 04:26:00,
2013-01-31 23:31:00,30.0,18.0,29.36,WSW,247,8.2,12.1,60,0.00,,,0.22,Rainwise IP-100,2013-02-01 04:31:00,
2013-01-31 23:36:00,29.9,18.0,29.36,WNW,292,1.6,10.5,60,0.00,,,0.22,Rainwise IP-100,2013-02-01 04:36:00,
2013-01-31 23:41:00,29.6,18.0,29.37,West,270,2.8,9.6,60,0.00,,,0.22,Rainwise IP-100,2013-02-01 04:41:00,
2013-01-31 23:46:00,29.4,16.0,29.37,West,270,2.1,10.3,59,0.00,,,0.22,Rainwise IP-100,2013-02-01 04:46:00,
2013-01-31 23:51:00,29.3,16.0,29.38,West,270,4.9,9.6,58,0.00,,,0.22,Rainwise IP-100,2013-02-01 04:51:00,
2013-01-31 23:56:00,29.2,16.0,29.37,WNW,292,7.9,14.9,57,0.00,,,0.22,Rainwise IP-100,2013-02-01 04:56:00,